Regional Weather Roundup
Issued by NWS

Home | Current Version | Previous Version | Text Only | Print | Product List | Glossary Off
Versions: 1 2 3 4 5 6 7 8 9 10 11 12 13 14 15 16 17 18 19 20 21 22 23 24 25 26 27 28 29 30 31 32 33 34 35 36 37 38 39 40 41 42 43 44 45 46 47 48 49 50

000
ASUS45 KTFX 301610
RWRMT
MONTANA REGIONAL WEATHER ROUNDUP
NATIONAL WEATHER SERVICE GREAT FALLS MT
1000 AM MDT THU JUL 30 2015

NOTE: "FAIR" INDICATES FEW OR NO CLOUDS BELOW 12000 FEET WITH NO
SIGNIFICANT WEATHER AND/OR OBSTRUCTIONS TO VISIBILITY.

MTZ001>007-043-301700-
WEST OF THE DIVIDE

CITY           SKY/WX    TMP DP  RH WIND       PRES   REMARKS
KALISPELL      SUNNY     71  40  32 NE7       30.26F
MISSOULA       SUNNY     62  45  53 S3        30.33S
BUTTE          SUNNY     62  38  40 CALM      30.41F
MULLAN PASS    SUNNY     65  34  31 S5        30.40S
DEER LODGE       N/A     64  45  48 CALM      30.41F
EUREKA           N/A     70  43  37 W3        30.28F
HAMILTON         N/A     66  45  45 S2        30.31F
LIBBY            N/A     64  41  42 N3        30.26F
$$

MTZ008-052>055-301700-
SOUTHWEST MONTANA

CITY           SKY/WX    TMP DP  RH WIND       PRES   REMARKS
BOZEMAN        SUNNY     68  45  43 CALM      30.36F
DILLON         SUNNY     65  45  48 SW6       30.39S
W YELLOWSTONE  SUNNY     57  41  54 CALM      30.50S
$$

MTZ009-010-012-014-046-048-049-054-301700-
EAST SLOPES AND CENTRAL MONTANA

CITY           SKY/WX    TMP DP  RH WIND       PRES   REMARKS
CUT BANK       SUNNY     71  40  32 S5        30.28S
GREAT FALLS    SUNNY     73  43  33 SW8       30.29S
MALMSTROM AFB  SUNNY     72  42  33 W9        30.29S
HELENA         SUNNY     68  44  42 VRB5      30.33S
$$

MTZ011-013-016-021-045-047-050-051-301700-
NORTH CENTRAL MONTANA

CITY           SKY/WX    TMP DP  RH WIND       PRES   REMARKS
HAVRE          SUNNY     68  52  56 W5        30.24F
LEWISTOWN      SUNNY     72  42  34 W5        30.32S
CHINOOK          N/A     68  54  60 W5        30.24S
FORT BENTON      N/A     72  45  37 W7        30.27S
$$

MTZ017>020-022>027-061-062-301700-
NORTHEAST MONTANA

CITY           SKY/WX    TMP DP  RH WIND       PRES   REMARKS
GLASGOW        SUNNY     71  53  52 W6        30.22R
JORDAN           N/A     77  46  33 VRB7      30.22S
SIDNEY         SUNNY    N/A N/A N/A NW10      30.18S
WOLF POINT     SUNNY     73  54  51 SW6       30.20S
PLENTYWOOD       N/A     72  52  49 NW10G17   30.19S
POPLAR           N/A     73  54  49 CALM      30.20F
$$

MTZ028>42-056>058-301700-
SOUTHCENTRAL AND SOUTHEAST MONTANA

CITY           SKY/WX    TMP DP  RH WIND       PRES   REMARKS
BAKER          SUNNY     76  42  29 NW12      30.24R
BILLINGS       SUNNY     70  43  37 SW12      30.30S
LIVINGSTON     SUNNY     74  43  32 W13G18    30.34F
MILES CITY     SUNNY     76  47  35 VRB5      30.22F
FORSYTH          N/A     73  45  35 CALM      30.24S
$$

REGIONAL REPORTS...DAKOTAS

CITY           SKY/WX    TMP DP  RH WIND       PRES   REMARKS
WILLISTON      SUNNY     74  52  46 W8        30.18F
MINOT          SUNNY     74  51  44 W16       30.12S
DICKINSON      SUNNY     76  46  34 W10       30.18S
BEACH          FAIR      75  45  33 NW13      30.22S
CROSBY         FAIR      72  57  60 W12       30.16S
BISMARCK       SUNNY     76  51  41 NW7       30.15S
GRAND FORKS    MOSUNNY   77  56  48 NW17      30.00S
FARGO          PTSUNNY   75  58  55 W12       30.06S
BUFFALO SD       N/A     82  39  21 NW12G20   30.16F
RAPID CITY     SUNNY     80  51  36 CALM      30.26S
$$

REGIONAL REPORTS...WYOMING/IDAHO/WASHINGTON

CITY           SKY/WX    TMP DP  RH WIND       PRES   REMARKS
GILLETTE       SUNNY     78  36  21 CALM      30.33S
SHERIDAN       SUNNY     77  43  29 VRB3      30.31S
BUFFALO WY     SUNNY     77  34  21 SE5       30.37S
CODY           SUNNY     73  37  27 S6        30.38S
YELLOWSTONE LA   N/A     55  40  56 E5        30.57F
IDAHO FALLS    SUNNY     66  46  48 N6        30.38R
SALMON         SUNNY     63  45  51 CALM      30.35F
BOISE          SUNNY     77  37  23 CALM      30.25R
SPOKANE        SUNNY     74  42  31 VRB6      30.20S
$$

REGIONAL REPORTS...ALBERTA

CITY           SKY/WX    TMP DP  RH WIND       PRES   REMARKS
EDMONTON       MOSUNNY   66  45  45 W9        30.18S
CALGARY        MOSUNNY   66  43  42 N5        30.25S
LETHBRIDGE     SUNNY     66  46  48 SE3       30.25F
WATERTON GATE    N/A     72  45  37 S5          N/A
MILK RIVER       N/A     70  45  40 S5          N/A
ONEFOUR          N/A     72  46  40 W2          N/A
$$

REGIONAL REPORTS...SASKATCHEWAN

CITY           SKY/WX    TMP DP  RH WIND       PRES   REMARKS
SWIFT CURRENT  SUNNY     68  48  49 NW7       30.23S
REGINA         MOSUNNY   70  54  56 NW13G20   30.15S
SASKATOON      SUNNY     68  50  52 W16       30.13F
CYPRESS HILLS    N/A     66  43  42 NW3         N/A
VAL MARIE        N/A     72  50  46 N5          N/A
ROCKGLEN         N/A     68  52  56 NW10        N/A
$$


USA.gov is the U.S. government's official web portal to all federal, state and local government web resources and services.